Content
SEND FEEDBACK

Daily
Averages
Monthly
Summary
Turkmenistan

ASHGABAT, TURKMENISTAN


Home > Asia > Turkmenistan
Elevation: 775 feet     Latitude: 37 58N     Longitude: 058 20E

WEATHER
 
SELECT A DAY
Number of Records: 177,096;   Date Range: 3/15/97 - 7/20/14
 
SHARE

PRINT THIS DATA

[ ← Previous Day ]
WEATHER ALMANAC - DECEMBER 22, 2013
[ Next Day → ]
[ °C ]   °F
Weather ElementAverageHighLow
Temperature32.8 °F44.6 °F (4:00 pm)24 °F (8:00 am)
Dewpoint25 °F28.4 °F (2:00 pm)20 °F (8:00 am)
Humidity71.9 %86 % (1:00 am)37 % (5:00 pm)
Barometer30.50 in30.62 in (2:00 am)30.42 in (2:00 pm)
Wind Speed7.1 mph11.2 mph (10:00 am)
Weather ElementAverage
Visibility6.1 mi
Wind DirectionESE (124.2 °)

Weather ElementTotal
Precipitation---
Heating Degree Days30.7 (Base 65)
Averaged from 31 records on December 22, 2013
WEATHER CONDITIONS BREAKOUT
WIND DIRECTION BREAKOUT
WEATHER BY HOUR - DECEMBER 22, 2013
[ °C ]   °F
Local TimeTemperatureDewpointHumidityBarometerVisibilityWind DirectionWind SpeedGust SpeedPrecipitationEventsConditions
1:00 AM30.2 °F26.6 °F86 %30.57 in6.2 miEast (80°)4.5 mphMostly Cloudy
2:00 AM29.0 °F24.0 °F76 %30.62 in6.0 miESE (120°)4.5 mphScattered Clouds
2:00 AM28.4 °F24.8 °F86 %30.54 in6.2 miESE (120°)4.5 mphPartly Cloudy
3:00 AM28.4 °F24.8 °F86 %30.54 in6.2 miEast (100°)6.7 mphPartly Cloudy
4:00 AM28.4 °F24.8 °F86 %30.54 in6.2 miESE (110°)6.7 mphClear
5:00 AM26.0 °F22.0 °F78 %30.59 in6.0 miESE (110°)6.7 mph
5:00 AM28.4 °F23.0 °F80 %30.51 in6.2 miESE (110°)6.7 mphClear
6:00 AM26.6 °F23.0 °F86 %30.51 in6.2 miESE (110°)6.7 mphClear
7:00 AM26.6 °F23.0 °F86 %30.51 in6.2 miESE (110°)8.9 mphClear
8:00 AM24.0 °F20.0 °F81 %30.59 in6.0 miESE (110°)6.7 mph
8:00 AM26.6 °F23.0 °F86 %30.54 in6.2 miESE (110°)6.7 mphClear
9:00 AM26.6 °F23.0 °F86 %30.54 in6.2 miESE (110°)6.7 mphClear
10:00 AM28.4 °F23.0 °F80 %30.54 in6.2 miESE (120°)11.2 mphClear
11:00 AM30.0 °F23.0 °F67 %30.61 in6.0 miEast (100°)8.9 mphScattered Clouds
11:00 AM30.2 °F24.8 °F80 %30.54 in6.2 miEast (100°)8.9 mphPartly Cloudy
12:00 PM33.8 °F26.6 °F75 %30.51 in6.2 miESE (120°)8.9 mphPartly Cloudy
1:00 PM37.4 °F26.6 °F65 %30.45 in6.2 miESE (120°)11.2 mphPartly Cloudy
2:00 PM40.0 °F28.0 °F50 %30.49 in6.0 miESE (120°)11.2 mphClear
2:00 PM41.0 °F28.4 °F61 %30.42 in6.2 miESE (120°)8.9 mphPartly Cloudy
3:00 PM42.8 °F26.6 °F53 %30.42 in6.2 miEast (100°)8.9 mphClear
4:00 PM44.6 °F26.6 °F49 %30.42 in6.2 miESE (110°)8.9 mphClear
5:00 PM43.0 °F26.0 °F37 %30.47 in6.0 miEast (100°)6.7 mph
5:00 PM42.8 °F26.6 °F53 %30.42 in6.2 miEast (100°)6.7 mphClear
6:00 PM41.0 °F26.6 °F57 %30.45 in6.2 miENE (60°)4.5 mphClear
7:00 PM37.4 °F26.6 °F65 %30.48 in6.2 miNE (40°)4.5 mphPartly Cloudy
8:00 PM34.0 °F25.0 °F58 %30.51 in6.0 miSSE (160°)2.2 mph
8:00 PM33.8 °F26.6 °F75 %30.45 in6.2 miSSE (160°)4.5 mphClear
9:00 PM33.8 °F26.6 °F75 %30.42 in6.2 miESE (110°)4.5 mphClear
10:00 PM30.2 °F24.8 °F80 %30.42 in6.2 miWest (270°)6.7 mphScattered Clouds
11:00 PM32.0 °F25.0 °F65 %30.49 in6.0 miWest (270°)8.9 mphClear
11:00 PM32.0 °F26.6 °F80 %30.45 in6.2 miWest (270°)8.9 mphScattered Clouds
Hourly data recorded from UTAA, located miles away from Ashgabat, Turkmenistan







STORIES FROM OUR PARTNERS